GLOBALSTAR M006 [+]

Last updated on May 5, 2016, 7:39 a.m. UTC

1 25307U 98023B   16126.22298388 -.00000083  00000-0 -15526-3 0  9992
2 25307  51.9936 230.5417 0001331 180.5808 195.7884 11.58296346831113
UTC
Height (km)
Latitude
Longitude
Inclination
Orbital Period
UTC large
Height (km)
Speed (km/s)
/
Latitude / Longitude
Inclination (degrees)
Orbital Period (minutes)
Azimuth
Elevation
Range (km)
Doppler Factor
iOS Compass Heading
iOS Angle